AAY1018 KOAK-KIDA

Flight info

Callsign AAY1018
Flight time 1h 40m
Altitude 39000
Route OAK6 OAK MOGEE FMG PARZZ IDA
Aircraft A319/M-SDE3FGHIRWY/LB1

Departure

Time 2026-05-06 02:45
Airport San Francisco Bay Oakland International Airport (KOAK)

Arrival

Time 2026-05-06 04:26
Airport Idaho Falls Regional Airport (KIDA)
Time Latitude Longitude Altitude Speed Heading
2026-05-06 02:20 37.71179 -122.21382 18 ft 0 kts
2026-05-06 02:35 37.71177 -122.21383 18 ft 0 kts
2026-05-06 02:35 37.71166 -122.21378 18 ft 2 kts 339°
2026-05-06 02:36 37.71151 -122.21375 18 ft 2 kts 347°
2026-05-06 02:36 37.71137 -122.21369 18 ft 2 kts 346°
2026-05-06 02:36 37.71122 -122.21365 18 ft 2 kts 346°
2026-05-06 02:36 37.71108 -122.21361 17 ft 2 kts 346°
2026-05-06 02:37 37.71100 -122.21358 17 ft 0 kts 353°
2026-05-06 02:37 37.71096 -122.21358 17 ft 0 kts 52°
2026-05-06 02:37 37.71094 -122.21363 17 ft 0 kts 99°
2026-05-06 02:37 37.71095 -122.21369 17 ft 0 kts 144°
2026-05-06 02:38 37.71099 -122.21371 17 ft 1 kts 178°
2026-05-06 02:38 37.71104 -122.21371 17 ft 0 kts 165°
2026-05-06 02:40 37.71102 -122.21371 17 ft 1 kts 165°
2026-05-06 02:40 37.71073 -122.21378 17 ft 6 kts 212°
2026-05-06 02:40 37.71025 -122.21424 17 ft 10 kts 221°
2026-05-06 02:41 37.70958 -122.21500 17 ft 14 kts 223°
2026-05-06 02:41 37.70880 -122.21588 17 ft 16 kts 220°
2026-05-06 02:41 37.70788 -122.21687 16 ft 18 kts 221°
2026-05-06 02:41 37.70684 -122.21787 16 ft 17 kts 181°
2026-05-06 02:42 37.70581 -122.21710 16 ft 17 kts 128°
2026-05-06 02:42 37.70503 -122.21582 16 ft 18 kts 125°
2026-05-06 02:42 37.70422 -122.21458 16 ft 18 kts 136°
2026-05-06 02:42 37.70314 -122.21372 16 ft 14 kts 163°
2026-05-06 02:43 37.70295 -122.21366 16 ft 0 kts 168°
2026-05-06 02:43 37.70294 -122.21365 16 ft 0 kts 168°
2026-05-06 02:44 37.70268 -122.21361 16 ft 8 kts 177°
2026-05-06 02:44 37.70185 -122.21416 16 ft 18 kts 242°
2026-05-06 02:45 37.70292 -122.21647 16 ft 62 kts 309°
2026-05-06 02:45 37.70742 -122.22318 16 ft 133 kts 310°
2026-05-06 02:45 37.71412 -122.23309 484 ft 148 kts 308°
2026-05-06 02:45 37.72050 -122.24331 1171 ft 153 kts 305°
2026-05-06 02:46 37.72646 -122.25409 1912 ft 154 kts 302°
2026-05-06 02:46 37.73272 -122.26623 2316 ft 177 kts 303°
2026-05-06 02:46 37.73972 -122.27979 2872 ft 192 kts 303°
2026-05-06 02:46 37.74722 -122.29454 3393 ft 209 kts 303°
2026-05-06 02:47 37.75539 -122.31095 3902 ft 229 kts 303°
2026-05-06 02:47 37.76416 -122.32882 4448 ft 249 kts 303°
2026-05-06 02:47 37.77507 -122.34654 5086 ft 262 kts 324°
2026-05-06 02:47 37.79192 -122.35445 5948 ft 263 kts
2026-05-06 02:48 37.80917 -122.34864 6919 ft 262 kts 32°
2026-05-06 02:48 37.82204 -122.33272 7864 ft 265 kts 55°
2026-05-06 02:48 37.83189 -122.31298 8769 ft 269 kts 55°
2026-05-06 02:48 37.84215 -122.29333 9659 ft 272 kts 54°
2026-05-06 02:49 37.85269 -122.27373 10516 ft 276 kts 54°
2026-05-06 02:49 37.86383 -122.25337 11042 ft 292 kts 53°
2026-05-06 02:49 37.87618 -122.23186 11498 ft 309 kts 52°
2026-05-06 02:49 37.88903 -122.20973 12195 ft 317 kts 52°
2026-05-06 02:50 37.90193 -122.18751 13037 ft 319 kts 52°
2026-05-06 02:50 37.91509 -122.16478 13878 ft 320 kts 52°
2026-05-06 02:50 37.92818 -122.14214 14649 ft 323 kts 52°
2026-05-06 02:50 37.94156 -122.11898 15362 ft 327 kts 52°
2026-05-06 02:51 37.95509 -122.09551 16065 ft 331 kts 52°
2026-05-06 02:51 37.96858 -122.07207 16753 ft 334 kts 52°
2026-05-06 02:51 37.98241 -122.04807 17425 ft 338 kts 52°
2026-05-06 02:51 37.99624 -122.02403 18051 ft 342 kts 52°
2026-05-06 02:52 38.01030 -121.99957 18706 ft 345 kts 52°
2026-05-06 02:52 38.02446 -121.97486 19392 ft 346 kts 52°
2026-05-06 02:52 38.03859 -121.95026 20055 ft 348 kts 52°
2026-05-06 02:52 38.05302 -121.92506 20689 ft 350 kts 52°
2026-05-06 02:53 38.06735 -121.90002 21300 ft 352 kts 52°
2026-05-06 02:53 38.08181 -121.87475 21886 ft 354 kts 52°
2026-05-06 02:53 38.09636 -121.84932 22472 ft 356 kts 52°
2026-05-06 02:53 38.11086 -121.82396 23074 ft 357 kts 52°
2026-05-06 02:54 38.12555 -121.79822 23662 ft 359 kts 52°
2026-05-06 02:54 38.14022 -121.77251 24202 ft 362 kts 52°
2026-05-06 02:54 38.15516 -121.74631 24717 ft 365 kts 52°
2026-05-06 02:54 38.16996 -121.72029 25195 ft 368 kts 51°
2026-05-06 02:55 38.18511 -121.69370 25670 ft 372 kts 51°
2026-05-06 02:55 38.20029 -121.66698 26168 ft 374 kts 51°
2026-05-06 02:55 38.21552 -121.64020 26635 ft 376 kts 51°
2026-05-06 02:55 38.23090 -121.61314 27078 ft 379 kts 51°
2026-05-06 02:56 38.24637 -121.58586 27522 ft 381 kts 51°
2026-05-06 02:56 38.26183 -121.55860 27983 ft 383 kts 51°
2026-05-06 02:56 38.27753 -121.53086 28412 ft 385 kts 51°
2026-05-06 02:56 38.29320 -121.50317 28837 ft 387 kts 51°
2026-05-06 02:57 38.30891 -121.47539 29235 ft 389 kts 51°
2026-05-06 02:57 38.32472 -121.44742 29613 ft 391 kts 51°
2026-05-06 02:57 38.34076 -121.41901 29946 ft 395 kts 51°
2026-05-06 02:57 38.35683 -121.39053 30088 ft 402 kts 51°
2026-05-06 02:58 38.37332 -121.36128 30311 ft 406 kts 51°
2026-05-06 02:58 38.38954 -121.33247 30736 ft 406 kts 52°
2026-05-06 02:58 38.40585 -121.30346 31267 ft 403 kts 52°
2026-05-06 02:58 38.42224 -121.27426 31795 ft 400 kts 52°
2026-05-06 02:59 38.43797 -121.24624 32274 ft 398 kts 52°
2026-05-06 02:59 38.45432 -121.21709 32756 ft 395 kts 52°
2026-05-06 02:59 38.47027 -121.18864 33188 ft 394 kts 52°
2026-05-06 02:59 38.48595 -121.16062 33607 ft 392 kts 52°
2026-05-06 03:00 38.50196 -121.13200 34051 ft 390 kts 52°
2026-05-06 03:00 38.51769 -121.10386 34452 ft 388 kts 52°
2026-05-06 03:00 38.53329 -121.07591 34835 ft 387 kts 52°
2026-05-06 03:00 38.54879 -121.04814 35186 ft 386 kts 52°
2026-05-06 03:01 38.56443 -121.02007 35525 ft 385 kts 52°
2026-05-06 03:01 38.57991 -120.99228 35848 ft 384 kts 52°
2026-05-06 03:01 38.59531 -120.96462 36173 ft 383 kts 52°
2026-05-06 03:01 38.61076 -120.93682 36500 ft 381 kts 52°
2026-05-06 03:02 38.62617 -120.90910 36807 ft 380 kts 51°
2026-05-06 03:02 38.64143 -120.88159 37077 ft 379 kts 52°
2026-05-06 03:02 38.65650 -120.85445 37299 ft 379 kts 51°
2026-05-06 03:02 38.67178 -120.82687 37467 ft 380 kts 51°
2026-05-06 03:03 38.68725 -120.79896 37613 ft 382 kts 51°
2026-05-06 03:03 38.70252 -120.77138 37759 ft 383 kts 51°
2026-05-06 03:03 38.71791 -120.74352 37918 ft 384 kts 51°
2026-05-06 03:03 38.73332 -120.71565 38060 ft 385 kts 51°
2026-05-06 03:04 38.74874 -120.68771 38195 ft 386 kts 51°
2026-05-06 03:04 38.76430 -120.65948 38332 ft 386 kts 51°
2026-05-06 03:04 38.77976 -120.63143 38460 ft 387 kts 51°
2026-05-06 03:04 38.79517 -120.60344 38593 ft 387 kts 51°
2026-05-06 03:05 38.81083 -120.57494 38712 ft 388 kts 51°
2026-05-06 03:05 38.84190 -120.51839 38912 ft 389 kts 51°
2026-05-06 03:05 38.85745 -120.49004 39021 ft 389 kts 51°
2026-05-06 03:06 38.87315 -120.46137 39072 ft 390 kts 51°
2026-05-06 03:06 38.90439 -120.40431 39083 ft 391 kts 51°
2026-05-06 03:07 38.93544 -120.34751 39088 ft 390 kts 52°
2026-05-06 03:07 38.96661 -120.29028 39084 ft 391 kts 52°
2026-05-06 03:08 38.99765 -120.23325 39087 ft 391 kts 51°
2026-05-06 03:08 39.02877 -120.17602 39091 ft 391 kts 51°
2026-05-06 03:09 39.05993 -120.11861 39087 ft 390 kts 51°
2026-05-06 03:09 39.09103 -120.06115 39087 ft 391 kts 51°
2026-05-06 03:10 39.12202 -120.00384 39091 ft 391 kts 51°
2026-05-06 03:10 39.15322 -119.94600 39098 ft 391 kts 51°
2026-05-06 03:11 39.18430 -119.88832 39097 ft 392 kts 51°
2026-05-06 03:11 39.21537 -119.83053 39093 ft 391 kts 51°
2026-05-06 03:12 39.24627 -119.77294 39085 ft 390 kts 51°
2026-05-06 03:12 39.27718 -119.71522 39070 ft 390 kts 51°
2026-05-06 03:13 39.30796 -119.65768 39060 ft 389 kts 51°
2026-05-06 03:13 39.33879 -119.59995 39075 ft 389 kts 51°
2026-05-06 03:14 39.36970 -119.54195 39043 ft 390 kts 51°
2026-05-06 03:14 39.40044 -119.48410 39059 ft 389 kts 51°
2026-05-06 03:15 39.43106 -119.42645 39077 ft 388 kts 51°
2026-05-06 03:15 39.46184 -119.36838 39053 ft 389 kts 51°
2026-05-06 03:16 39.49238 -119.31061 39074 ft 390 kts 52°
2026-05-06 03:16 39.52287 -119.25288 39064 ft 390 kts 52°
2026-05-06 03:17 39.55333 -119.19510 39049 ft 388 kts 52°
2026-05-06 03:17 39.58394 -119.13691 39029 ft 389 kts 52°
2026-05-06 03:18 39.61429 -119.07912 39031 ft 389 kts 52°
2026-05-06 03:18 39.64484 -119.02076 39026 ft 390 kts 52°
2026-05-06 03:19 39.67542 -118.96234 39029 ft 390 kts 52°
2026-05-06 03:19 39.70586 -118.90410 39011 ft 390 kts 52°
2026-05-06 03:20 39.75149 -118.81652 39003 ft 389 kts 52°
2026-05-06 03:20 39.78193 -118.75794 39007 ft 390 kts 52°
2026-05-06 03:21 39.81215 -118.69968 39023 ft 389 kts 52°
2026-05-06 03:21 39.84236 -118.64134 39091 ft 389 kts 52°
2026-05-06 03:22 39.87264 -118.58279 38946 ft 389 kts 52°
2026-05-06 03:22 39.90284 -118.52429 39035 ft 390 kts 52°
2026-05-06 03:23 39.93292 -118.46587 39071 ft 389 kts 52°
2026-05-06 03:23 39.96328 -118.40675 39021 ft 389 kts 52°
2026-05-06 03:24 39.99323 -118.34842 39007 ft 389 kts 52°
2026-05-06 03:24 40.02348 -118.28942 39009 ft 390 kts 52°
2026-05-06 03:25 40.05336 -118.23090 38998 ft 389 kts 52°
2026-05-06 03:25 40.08347 -118.17191 39022 ft 388 kts 52°
2026-05-06 03:26 40.11344 -118.11307 39033 ft 389 kts 52°
2026-05-06 03:26 40.14341 -118.05411 39028 ft 389 kts 52°
2026-05-06 03:27 40.17325 -117.99530 39018 ft 390 kts 52°
2026-05-06 03:27 40.20332 -117.93591 39017 ft 390 kts 52°
2026-05-06 03:28 40.23330 -117.87660 39014 ft 389 kts 52°
2026-05-06 03:28 40.26314 -117.81747 39015 ft 389 kts 52°
2026-05-06 03:29 40.29288 -117.75841 39023 ft 389 kts 52°
2026-05-06 03:29 40.32264 -117.69920 39031 ft 390 kts 52°
2026-05-06 03:30 40.35245 -117.63975 39038 ft 390 kts 52°
2026-05-06 03:30 40.38212 -117.58054 39039 ft 390 kts 52°
2026-05-06 03:31 40.41189 -117.52096 39044 ft 390 kts 52°
2026-05-06 03:31 40.44167 -117.46128 39049 ft 390 kts 52°
2026-05-06 03:32 40.47117 -117.40204 39044 ft 390 kts 52°
2026-05-06 03:32 40.50098 -117.34201 39032 ft 390 kts 52°
2026-05-06 03:33 40.53043 -117.28265 39024 ft 389 kts 52°
2026-05-06 03:33 40.55981 -117.22325 39015 ft 390 kts 52°
2026-05-06 03:34 40.58954 -117.16307 39010 ft 390 kts 52°
2026-05-06 03:34 40.61905 -117.10326 39001 ft 389 kts 52°
2026-05-06 03:35 40.64831 -117.04380 38983 ft 390 kts 52°
2026-05-06 03:35 40.67775 -116.98388 38969 ft 390 kts 52°
2026-05-06 03:36 40.70729 -116.92361 38972 ft 390 kts 52°
2026-05-06 03:36 40.73670 -116.86349 38986 ft 390 kts 52°
2026-05-06 03:37 40.76614 -116.80325 39001 ft 390 kts 52°
2026-05-06 03:37 40.79550 -116.74304 39004 ft 391 kts 52°
2026-05-06 03:38 40.82486 -116.68259 39018 ft 392 kts 51°
2026-05-06 03:38 40.85439 -116.62180 39058 ft 391 kts 51°
2026-05-06 03:39 40.88367 -116.56137 39048 ft 391 kts 51°
2026-05-06 03:39 40.91286 -116.50103 38932 ft 390 kts 51°
2026-05-06 03:40 40.94222 -116.44019 39024 ft 391 kts 51°
2026-05-06 03:40 40.97132 -116.37978 39042 ft 391 kts 51°
2026-05-06 03:41 41.00057 -116.31889 39044 ft 392 kts 52°
2026-05-06 03:41 41.02996 -116.25768 39098 ft 392 kts 52°
2026-05-06 03:42 41.05907 -116.19691 39001 ft 392 kts 52°
2026-05-06 03:42 41.08846 -116.13541 39046 ft 392 kts 52°
2026-05-06 03:43 41.11752 -116.07446 39049 ft 392 kts 52°
2026-05-06 03:43 41.14659 -116.01335 39053 ft 393 kts 52°
2026-05-06 03:44 41.17576 -115.95197 39050 ft 393 kts 52°
2026-05-06 03:44 41.20482 -115.89067 39048 ft 393 kts 52°
2026-05-06 03:45 41.23403 -115.82887 39049 ft 393 kts 51°
2026-05-06 03:45 41.26310 -115.76736 39047 ft 393 kts 51°
2026-05-06 03:46 41.29223 -115.70551 39045 ft 393 kts 51°
2026-05-06 03:46 41.32112 -115.64411 39046 ft 394 kts 51°
2026-05-06 03:47 41.35031 -115.58187 39043 ft 394 kts 51°
2026-05-06 03:47 41.37914 -115.52034 39045 ft 393 kts 51°
2026-05-06 03:48 41.40832 -115.45789 39037 ft 394 kts 51°
2026-05-06 03:48 41.43733 -115.39574 39037 ft 394 kts 51°
2026-05-06 03:49 41.46615 -115.33377 39035 ft 395 kts 51°
2026-05-06 03:49 41.49509 -115.27148 39021 ft 396 kts 51°
2026-05-06 03:50 41.52392 -115.20932 39019 ft 396 kts 51°
2026-05-06 03:50 41.55284 -115.14681 39021 ft 395 kts 51°
2026-05-06 03:51 41.58178 -115.08434 39029 ft 394 kts 50°
2026-05-06 03:51 41.61348 -115.02475 39032 ft 390 kts 45°
2026-05-06 03:52 41.64857 -114.97008 39018 ft 387 kts 42°
2026-05-06 03:52 41.68471 -114.91640 39012 ft 388 kts 42°
2026-05-06 03:53 41.72073 -114.86298 39010 ft 388 kts 42°
2026-05-06 03:53 41.75679 -114.80938 39014 ft 388 kts 41°
2026-05-06 03:54 41.79295 -114.75553 39015 ft 387 kts 41°
2026-05-06 03:54 41.82898 -114.70182 39016 ft 387 kts 42°
2026-05-06 03:55 41.86500 -114.64796 39007 ft 388 kts 41°
2026-05-06 03:55 41.90113 -114.59386 39006 ft 389 kts 41°
2026-05-06 03:56 41.93722 -114.53975 39008 ft 389 kts 41°
2026-05-06 03:56 41.97326 -114.48560 39003 ft 389 kts 41°
2026-05-06 03:57 42.00930 -114.43139 39004 ft 388 kts 41°
2026-05-06 03:57 42.04529 -114.37708 38992 ft 389 kts 41°
2026-05-06 03:58 42.08141 -114.32252 38991 ft 390 kts 41°
2026-05-06 03:58 42.11760 -114.26772 38992 ft 390 kts 41°
2026-05-06 03:59 42.15368 -114.21303 38992 ft 390 kts 41°
2026-05-06 03:59 42.18963 -114.15842 38990 ft 390 kts 41°
2026-05-06 04:00 42.22580 -114.10334 38984 ft 391 kts 41°
2026-05-06 04:00 42.26181 -114.04845 38981 ft 392 kts 41°
2026-05-06 04:01 42.29812 -113.99300 38978 ft 391 kts 41°
2026-05-06 04:01 42.33420 -113.93777 38982 ft 392 kts 41°
2026-05-06 04:02 42.37024 -113.88251 38973 ft 393 kts 41°
2026-05-06 04:02 42.40648 -113.82682 38968 ft 393 kts 41°
2026-05-06 04:03 42.44246 -113.77141 38822 ft 395 kts 41°
2026-05-06 04:03 42.46073 -113.74328 38497 ft 393 kts 41°
2026-05-06 04:03 42.47858 -113.71571 38178 ft 390 kts 41°
2026-05-06 04:04 42.49635 -113.68823 37863 ft 386 kts 41°
2026-05-06 04:04 42.51395 -113.66100 37539 ft 384 kts 41°
2026-05-06 04:04 42.53156 -113.63377 37221 ft 384 kts 41°
2026-05-06 04:04 42.54907 -113.60665 36896 ft 383 kts 41°
2026-05-06 04:05 42.56658 -113.57953 36486 ft 384 kts 41°
2026-05-06 04:05 42.58404 -113.55244 36037 ft 384 kts 41°
2026-05-06 04:05 42.60159 -113.52521 35547 ft 384 kts 41°
2026-05-06 04:05 42.61917 -113.49789 34930 ft 385 kts 41°
2026-05-06 04:06 42.63674 -113.47053 34277 ft 386 kts 41°
2026-05-06 04:06 42.65419 -113.44337 33525 ft 387 kts 41°
2026-05-06 04:06 42.67195 -113.41573 32780 ft 387 kts 41°
2026-05-06 04:06 42.68963 -113.38810 32044 ft 387 kts 41°
2026-05-06 04:07 42.70714 -113.36074 31286 ft 389 kts 41°
2026-05-06 04:07 42.72497 -113.33289 30575 ft 388 kts 42°
2026-05-06 04:07 42.74260 -113.30526 30080 ft 383 kts 41°
2026-05-06 04:07 42.75980 -113.27827 29591 ft 379 kts 42°
2026-05-06 04:08 42.77713 -113.25109 29086 ft 376 kts 42°
2026-05-06 04:08 42.79422 -113.22427 28595 ft 372 kts 42°
2026-05-06 04:08 42.81102 -113.19787 28097 ft 369 kts 41°
2026-05-06 04:08 42.82764 -113.17168 27600 ft 365 kts 41°
2026-05-06 04:09 42.84423 -113.14561 27099 ft 362 kts 41°
2026-05-06 04:09 42.86052 -113.11998 26583 ft 359 kts 41°
2026-05-06 04:09 42.87670 -113.09445 26091 ft 355 kts 41°
2026-05-06 04:09 42.89286 -113.06896 25593 ft 351 kts 41°
2026-05-06 04:10 42.90884 -113.04374 25057 ft 350 kts 41°
2026-05-06 04:10 42.92460 -113.01884 24546 ft 347 kts 41°
2026-05-06 04:10 42.94039 -112.99390 24043 ft 345 kts 41°
2026-05-06 04:10 42.95595 -112.96929 23555 ft 343 kts 41°
2026-05-06 04:11 42.97138 -112.94484 23113 ft 340 kts 41°
2026-05-06 04:11 42.98672 -112.92049 22647 ft 338 kts 41°
2026-05-06 04:11 43.00197 -112.89634 22121 ft 338 kts 41°
2026-05-06 04:11 43.01730 -112.87206 21609 ft 337 kts 41°
2026-05-06 04:12 43.03256 -112.84776 21149 ft 336 kts 41°
2026-05-06 04:12 43.04759 -112.82381 20648 ft 335 kts 41°
2026-05-06 04:12 43.06280 -112.79962 20181 ft 333 kts 41°
2026-05-06 04:12 43.07787 -112.77559 19720 ft 332 kts 41°
2026-05-06 04:13 43.09280 -112.75178 19235 ft 331 kts 41°
2026-05-06 04:13 43.10770 -112.72800 18760 ft 330 kts 42°
2026-05-06 04:13 43.12273 -112.70397 18226 ft 332 kts 42°
2026-05-06 04:13 43.13766 -112.68015 17727 ft 332 kts 41°
2026-05-06 04:14 43.15270 -112.65609 17212 ft 333 kts 42°
2026-05-06 04:14 43.16776 -112.63203 16713 ft 333 kts 42°
2026-05-06 04:14 43.18267 -112.60813 16184 ft 335 kts 42°
2026-05-06 04:14 43.19785 -112.58379 15660 ft 336 kts 42°
2026-05-06 04:15 43.21304 -112.55939 15151 ft 336 kts 43°
2026-05-06 04:15 43.22819 -112.53506 14646 ft 336 kts 43°
2026-05-06 04:15 43.24332 -112.51072 14121 ft 337 kts 43°
2026-05-06 04:15 43.25839 -112.48644 13627 ft 336 kts 43°
2026-05-06 04:16 43.27339 -112.46232 13131 ft 336 kts 44°
2026-05-06 04:16 43.28867 -112.43769 12647 ft 334 kts 44°
2026-05-06 04:16 43.30362 -112.41356 12187 ft 331 kts 44°
2026-05-06 04:16 43.31825 -112.38991 11735 ft 328 kts 45°
2026-05-06 04:17 43.33302 -112.36603 11280 ft 325 kts 45°
2026-05-06 04:17 43.34745 -112.34267 10852 ft 320 kts 46°
2026-05-06 04:17 43.36184 -112.31931 10504 ft 312 kts 46°
2026-05-06 04:17 43.37563 -112.29692 10270 ft 300 kts 46°
2026-05-06 04:18 43.38866 -112.27574 10168 ft 286 kts 46°
2026-05-06 04:18 43.40133 -112.25513 10067 ft 272 kts 46°
2026-05-06 04:18 43.41198 -112.23780 9987 ft 261 kts 46°
2026-05-06 04:18 43.42446 -112.21761 9615 ft 261 kts 46°
2026-05-06 04:19 43.43631 -112.19859 9375 ft 259 kts 44°
2026-05-06 04:19 43.44870 -112.18150 9255 ft 259 kts 41°
2026-05-06 04:19 43.46175 -112.16447 9135 ft 259 kts 40°
2026-05-06 04:19 43.47490 -112.14726 9015 ft 259 kts 41°
2026-05-06 04:20 43.48785 -112.13011 8902 ft 257 kts 41°
2026-05-06 04:20 43.50056 -112.11324 8686 ft 253 kts 41°
2026-05-06 04:20 43.51321 -112.09647 8232 ft 255 kts 42°
2026-05-06 04:20 43.52600 -112.07942 7873 ft 252 kts 42°
2026-05-06 04:21 43.53825 -112.06303 7846 ft 237 kts 42°
2026-05-06 04:21 43.54954 -112.04784 7837 ft 222 kts 42°
2026-05-06 04:21 43.56031 -112.03337 7827 ft 207 kts 42°
2026-05-06 04:21 43.57024 -112.02003 7809 ft 194 kts 42°
2026-05-06 04:22 43.57931 -112.00782 7885 ft 171 kts 41°
2026-05-06 04:22 43.58749 -111.99682 7849 ft 154 kts 41°
2026-05-06 04:22 43.59416 -111.98641 7767 ft 142 kts 56°
2026-05-06 04:23 43.58826 -111.96206 7394 ft 157 kts 140°
2026-05-06 04:23 43.57713 -111.96003 7088 ft 171 kts 196°
2026-05-06 04:23 43.56818 -111.97014 6894 ft 168 kts 254°
2026-05-06 04:23 43.56747 -111.98487 6745 ft 148 kts 296°
2026-05-06 04:24 43.56806 -111.99958 6599 ft 165 kts 266°
2026-05-06 04:24 43.56237 -112.01366 6148 ft 177 kts 231°
2026-05-06 04:24 43.55400 -112.02631 5692 ft 178 kts 230°
2026-05-06 04:24 43.54534 -112.03806 5392 ft 171 kts 223°
2026-05-06 04:25 43.53648 -112.04871 5089 ft 165 kts 221°
2026-05-06 04:25 43.52740 -112.05854 4922 ft 166 kts 217°
2026-05-06 04:25 43.51820 -112.06815 4747 ft 162 kts 220°
2026-05-06 04:25 43.51049 -112.07658 4746 ft 114 kts 219°
2026-05-06 04:26 43.50558 -112.08189 4742 ft 66 kts 220°
2026-05-06 04:26 43.50293 -112.08459 4738 ft 25 kts 212°
2026-05-06 04:26 43.50228 -112.08430 4738 ft 7 kts 80°
2026-05-06 04:26 43.50248 -112.08375 4738 ft 5 kts 63°
2026-05-06 04:27 43.50270 -112.08321 4739 ft 7 kts 53°
2026-05-06 04:27 43.50331 -112.08247 4740 ft 17 kts 37°
2026-05-06 04:27 43.50460 -112.08112 4742 ft 28 kts 38°
2026-05-06 04:27 43.50637 -112.07922 4744 ft 35 kts 39°
2026-05-06 04:28 43.50827 -112.07720 4746 ft 32 kts 37°
2026-05-06 04:28 43.50993 -112.07537 4745 ft 29 kts 39°
2026-05-06 04:28 43.51152 -112.07370 4743 ft 27 kts 39°
2026-05-06 04:28 43.51258 -112.07166 4741 ft 24 kts 59°
2026-05-06 04:29 43.51389 -112.07026 4740 ft 24 kts 23°
2026-05-06 04:29 43.51506 -112.06928 4739 ft 10 kts 59°
2026-05-06 04:29 43.51521 -112.06871 4738 ft 5 kts 91°
2026-05-06 04:29 43.51517 -112.06852 4738 ft 0 kts 116°